User: anonymous   Login
Location: Bruch
(44.2051°N, 0.4120°E)
Time: 23:01:00
(UTC+00:00)
Language:

Meteor 1-31 Rocket - Orbit

View from above orbital plane
View from above orbital plane
View from above satellite
View from above satellite

Ground track
Ground track

The orbit data is extracted from the following two-line orbital elements,

1 12586U 81065B   21061.19591942  .00000385  00000-0  26991-4 0  9999
2 12586  97.6488  49.2438 0017383 231.6483 128.3185 15.10954807160897
Epoch (UTC): 02 March 2021 04:42:07
Eccentricity: 0.0017383
inclination: 97.6488°
perigee height: 521 km
apogee height: 545 km
right ascension of ascending node: 49.2438°
argument of perigee: 231.6483°
revolutions per day: 15.10954807
mean anomaly at epoch: 128.3185°
orbit number at epoch: 16089

The dashed part of the orbit path shows where the satellite is in the earth's shadow,  

DLR